Home   Weather   Auxerre   Past weeks

Flag for France Past Weather in Auxerre, Burgundy, France — Yesterday and Last 2 Weeks

Now
37 °F

Clear.


Feels Like: 35 °F
Forecast: 32 / 55 °F
Wind: 3 mph from North

Location: Troyes Airport

Current Time: Apr 28, 2017 at 12:47:50 am

Latest Report: Apr 28, 2017 at 12:00 am


Visibility: 10 mi

Pressure: 30.04 "Hg

Humidity: 75%

Dew Point: 30 °F

Location of AuxerreLocation

Past Weather in Auxerre — Graph

°F

Auxerre Temperature Yesterday

Maximum temperature yesterday: 55 °F (at 4:30 pm)
Minimum temperature yesterday: 32 °F (at 2:30 am)
Average temperature yesterday: 43 °F

High & Low Weather Summary for the Past Weeks

 TemperatureHumidityPressure
High63 °F (Apr 14, 5:30 pm)94% (Apr 14, 3:30 am)30.60 "Hg (Apr 14, 3:30 am)
Low27 °F (Apr 21, 6:00 am)25% (Apr 21, 5:00 pm)29.80 "Hg (Apr 25, 5:30 am)
Average46 °F71%30.18 "Hg
* Reported Apr 12 11:00 pm — Apr 27 11:30 pm, Auxerre, Weather by CustomWeather, © 2017

Note: Actual official high and low records may vary slightly from our data, if they occured in-between our weather recording intervals... More about our weather records

Advertising

Auxerre Weather History for the Previous 24 Hours

Scroll right to see more
 ConditionsComfort  
Time TempWeatherWind HumidityBarometerVisibility
11:30 pm
Thu, Apr 27
36 °FClear.6 mph81%30.04 "Hg10 mi
11:00 pm36 °FClear.8 mph81%30.04 "Hg10 mi
10:30 pm36 °FClear.8 mph87%30.04 "Hg10 mi
10:00 pm37 °FClear.7 mph81%30.04 "Hg10 mi
9:00 pm41 °FClear.9 mph70%30.01 "Hg10 mi
8:30 pm46 °FSunny.12 mph57%30.01 "Hg10 mi
8:00 pm50 °FSunny.13 mph47%30.01 "Hg10 mi
7:30 pm50 °FSunny.13 mph43%30.01 "Hg10 mi
7:00 pm52 °FSunny.15 mph41%30.01 "Hg10 mi
6:30 pm50 °FCool.15 mph50%30.01 "HgN/A
6:00 pm54 °FSunny.13 mph38%30.01 "Hg10 mi
5:30 pm52 °FSunny.13 mph41%30.01 "Hg10 mi
5:00 pm54 °FPassing clouds.12 mph33%30.01 "HgN/A
4:30 pm55 °FPassing clouds.12 mph33%30.01 "HgN/A
4:00 pm54 °FPassing clouds.8 mph38%30.01 "HgN/A
3:30 pm52 °FSunny.12 mph44%30.01 "Hg10 mi
2:30 pm50 °FBroken clouds.9 mph47%30.04 "HgN/A
2:00 pm52 °FPassing clouds.12 mph50%30.04 "HgN/A
1:30 pm52 °FBroken clouds.15 mph54%30.04 "HgN/A
12:30 pm46 °FBroken clouds.12 mph62%30.04 "HgN/A
12:00 pm46 °FBroken clouds.12 mph62%30.07 "HgN/A
11:30 am48 °FPartly sunny.8 mph62%30.07 "HgN/A
11:00 am46 °FPassing clouds.5 mph71%30.07 "HgN/A
10:30 am45 °FScattered clouds.5 mph71%30.07 "HgN/A
10:00 am43 °FSunny.8 mph76%30.07 "Hg10 mi
9:30 am41 °FSunny.9 mph81%30.04 "Hg10 mi
9:00 am39 °FScattered clouds.9 mph87%30.04 "HgN/A
8:30 am37 °FPartly sunny.8 mph93%30.04 "HgN/A
8:00 am37 °FClear.6 mph93%30.04 "Hg6 mi
7:30 am36 °FSunny.3 mph93%30.04 "Hg10 mi
7:00 am34 °FBroken clouds.5 mph93%30.04 "HgN/A
6:30 am32 °FPassing clouds.7 mph93%30.01 "HgN/A
5:30 am32 °FClear.7 mph93%30.01 "Hg10 mi
4:30 am34 °FPassing clouds.3 mph93%30.01 "HgN/A
3:30 am34 °FClear.5 mph93%30.01 "Hg10 mi
3:00 am34 °FClear.6 mph93%30.01 "Hg10 mi
2:30 am32 °FPassing clouds.6 mph93%30.01 "HgN/A
2:00 am36 °FClear.6 mph93%30.01 "Hg10 mi
1:30 am36 °FClear.7 mph93%30.01 "Hg10 mi
1:00 am37 °FClear.8 mph93%30.01 "Hg10 mi
12:30 am37 °FPassing clouds.7 mph93%30.01 "HgN/A
Weather by CustomWeather, © 2017

See weather overviewHow to use our weather pages